Location: Huesca
(42.1318°N, 0.4078°W)
Time: 12:34:27
(UTC+01:00)

O/OREOS (USA 219) - Pass Details

Date: 19 November 2024
Orbit: 590 x 609 km, 72.0° (Epoch: 06 December)

Event Time Altitude Azimuth Distance (km) Brightness Sun altitude
Rises 19:09:26 0° 241° (WSW) 2,820 ? -17.1°
Reaches altitude 10° 19:12:15 10° 260° (W) 1,921 ? -17.6°
Maximum altitude 19:15:15 18° 305° (NW) 1,457 ? -18.1°
Drops below altitude 10° 19:18:17 10° 350° (N) 1,926 ? -18.7°
Enters shadow 19:20:32 - 6° (N) 2,629 ? -19.1°
